Date,Installs,Update checks
2022-07-28,2,0
2022-07-29,2,1
2022-07-30,2,2
2022-07-31,3,3
2022-08-01,2,4
2022-08-02,3,7
2022-08-03,4,6
2022-08-04,2,7
2022-08-05,0,7
2022-08-06,0,6
2022-08-07,3,9
2022-08-08,0,10
2022-08-09,1,9
2022-08-10,7,11
2022-08-11,3,10
2022-08-12,1,14
2022-08-13,0,12
2022-08-14,1,11
2022-08-15,2,13
2022-08-16,11,10
2022-08-17,20,22
2022-08-18,12,26
2022-08-19,9,27
2022-08-20,12,26
2022-08-21,20,38
2022-08-22,13,37
2022-08-23,10,41
2022-08-24,8,37
2022-08-25,5,43
2022-08-26,11,50
2022-08-27,7,50
2022-08-28,3,49
2022-08-29,2,49
2022-08-30,7,53
2022-08-31,2,54
2022-09-01,3,58
2022-09-02,7,53
2022-09-03,7,50
2022-09-04,9,55
2022-09-05,8,59
2022-09-06,3,58
2022-09-07,2,60
2022-09-08,3,55
2022-09-09,6,58
2022-09-10,4,64
2022-09-11,4,63
2022-09-12,3,67
2022-09-13,2,68
2022-09-14,5,67
2022-09-15,8,68
2022-09-16,4,83
2022-09-17,5,70
2022-09-18,5,84
2022-09-19,2,79
2022-09-20,7,69
2022-09-21,7,78
2022-09-22,2,74
2022-09-23,4,88
2022-09-24,6,71
2022-09-25,8,83
2022-09-26,5,85
2022-09-27,4,80
2022-09-28,1,79
2022-09-29,5,80
2022-09-30,10,87
2022-10-01,20,92
2022-10-02,12,105
2022-10-03,11,101
2022-10-04,8,99
2022-10-05,3,114
2022-10-06,7,107
2022-10-07,5,109
2022-10-08,6,118
2022-10-09,5,113
2022-10-10,15,106
2022-10-11,4,114
2022-10-12,3,117
2022-10-13,4,128
2022-10-14,6,118
2022-10-15,4,123
2022-10-16,6,133
2022-10-17,8,123
2022-10-18,9,130
2022-10-19,3,130
2022-10-20,8,124
2022-10-21,3,132
2022-10-22,5,142
2022-10-23,6,128
2022-10-24,1,145
2022-10-25,5,130
2022-10-26,4,123
2022-10-27,1,135
2022-10-28,2,126
2022-10-29,6,129
2022-10-30,1,125
2022-10-31,4,128
2022-11-01,4,127
2022-11-02,4,128
2022-11-03,0,131
2022-11-04,7,143
2022-11-05,4,134
2022-11-06,4,127
2022-11-07,4,132
2022-11-08,6,132
2022-11-09,7,137
2022-11-10,5,126
2022-11-11,4,141
2022-11-12,5,138
2022-11-13,12,149
2022-11-14,4,158
2022-11-15,9,146
2022-11-16,4,155
2022-11-17,2,128
2022-11-18,5,145
2022-11-19,4,126
2022-11-20,4,140
2022-11-21,2,143
2022-11-22,3,150
2022-11-23,2,148
2022-11-24,5,163
2022-11-25,2,160
2022-11-26,5,137
2022-11-27,5,150
2022-11-28,3,155
2022-11-29,5,161
2022-11-30,5,150
2022-12-01,5,147
2022-12-02,0,157
2022-12-03,4,141
2022-12-04,3,140
2022-12-05,7,146
2022-12-06,0,141
2022-12-07,2,135
2022-12-08,4,158
2022-12-09,6,164
2022-12-10,4,150
2022-12-11,5,142
2022-12-12,5,148
2022-12-13,6,149
2022-12-14,5,132
2022-12-15,9,148
2022-12-16,3,153
2022-12-17,10,127
2022-12-18,2,129
2022-12-19,0,126
2022-12-20,0,129
2022-12-21,2,129
2022-12-22,3,136
2022-12-23,2,130
2022-12-24,5,117
2022-12-25,8,141
2022-12-26,3,153
2022-12-27,4,149
2022-12-28,6,129
2022-12-29,4,148
2022-12-30,5,152
2022-12-31,5,130
2023-01-01,3,152
2023-01-02,3,159
2023-01-03,4,184
2023-01-04,4,171
2023-01-05,3,173
2023-01-06,2,169
2023-01-07,3,165
2023-01-08,5,162
2023-01-09,6,189
2023-01-10,3,167
2023-01-11,2,184
2023-01-12,3,187
2023-01-13,6,178
2023-01-14,5,183
2023-01-15,2,169
2023-01-16,4,179
2023-01-17,2,169
2023-01-18,1,188
2023-01-19,4,172
2023-01-20,5,187
2023-01-21,3,168
2023-01-22,4,161
2023-01-23,3,172
2023-01-24,12,165
2023-01-25,6,168
2023-01-26,11,192
2023-01-27,4,190
2023-01-28,2,196
2023-01-29,2,199
2023-01-30,8,191
2023-01-31,4,197
2023-02-01,10,197
2023-02-02,7,182
2023-02-03,2,204
2023-02-04,2,200
2023-02-05,5,185
2023-02-06,6,205
2023-02-07,4,212
2023-02-08,1,213
2023-02-09,2,199
2023-02-10,3,194
2023-02-11,2,192
2023-02-12,4,188
2023-02-13,2,194
2023-02-14,6,189
2023-02-15,1,189
2023-02-16,3,187
2023-02-17,1,218
2023-02-18,1,198
2023-02-19,1,192
2023-02-20,1,198
2023-02-21,0,189
2023-02-22,3,200
2023-02-23,0,197
2023-02-24,1,214
2023-02-25,4,202
2023-02-26,4,202
2023-02-27,5,188
2023-02-28,0,188
2023-03-01,2,195
2023-03-02,1,188
2023-03-03,1,208
2023-03-04,1,186
2023-03-05,1,192
2023-03-06,2,182
2023-03-07,4,197
2023-03-08,1,188
2023-03-09,0,189
2023-03-10,0,208
2023-03-11,3,175
2023-03-12,5,183
2023-03-13,2,190
2023-03-14,0,183
2023-03-15,0,190
2023-03-16,0,183
2023-03-17,2,182
2023-03-18,2,194
2023-03-19,5,186
2023-03-20,1,205
2023-03-21,1,185
2023-03-22,5,189
2023-03-23,0,189
2023-03-24,4,195
2023-03-25,3,202
2023-03-26,1,194
2023-03-27,0,205
2023-03-28,4,194
2023-03-29,0,195
2023-03-30,1,196
2023-03-31,0,192
2023-04-01,2,190
2023-04-02,1,195
2023-04-03,2,202
2023-04-04,2,191
2023-04-05,4,183
2023-04-06,2,175
2023-04-07,3,197
2023-04-08,1,180
2023-04-09,0,188
2023-04-10,0,172
2023-04-11,1,182
2023-04-12,2,191
2023-04-13,0,180
2023-04-14,3,191
2023-04-15,2,167
2023-04-16,2,182
2023-04-17,2,182
2023-04-18,4,181
2023-04-19,2,184
2023-04-20,0,185
2023-04-21,1,192
2023-04-22,0,178
2023-04-23,2,170
2023-04-24,3,181
2023-04-25,1,179
2023-04-26,2,180
2023-04-27,0,182
2023-04-28,0,181
2023-04-29,0,176
2023-04-30,0,156
2023-05-01,0,183
2023-05-02,1,169
2023-05-03,1,188
2023-05-04,1,191
2023-05-05,3,173
2023-05-06,2,180
2023-05-07,0,189
2023-05-08,1,162
2023-05-09,1,180
2023-05-10,0,174
2023-05-11,0,183
2023-05-12,1,186
2023-05-13,3,168
2023-05-14,6,171
2023-05-15,1,182
2023-05-16,1,181
2023-05-17,1,173
2023-05-18,0,173
2023-05-19,2,166
2023-05-20,0,182
2023-05-21,1,169
2023-05-22,2,161
2023-05-23,3,175
2023-05-24,2,164
2023-05-25,1,177
2023-05-26,5,172
2023-05-27,0,157
2023-05-28,0,161
2023-05-29,0,178
2023-05-30,1,176
2023-05-31,2,186
2023-06-01,1,177
2023-06-02,0,169
2023-06-03,1,156
2023-06-04,4,164
2023-06-05,3,162
2023-06-06,5,177
2023-06-07,3,168
2023-06-08,4,173
2023-06-09,5,181
2023-06-10,2,164
2023-06-11,1,156
2023-06-12,4,188
2023-06-13,1,182
2023-06-14,0,170
2023-06-15,2,180
2023-06-16,5,184
2023-06-17,3,165
2023-06-18,1,171
2023-06-19,1,177
2023-06-20,1,160
2023-06-21,0,152
2023-06-22,2,165
2023-06-23,3,149
2023-06-24,2,153
2023-06-25,2,163
2023-06-26,1,166
2023-06-27,0,175
2023-06-28,0,163
2023-06-29,1,165
2023-06-30,2,180
2023-07-01,2,163
2023-07-02,1,157
2023-07-03,3,172
2023-07-04,1,150
2023-07-05,1,161
2023-07-06,0,155
2023-07-07,0,158
2023-07-08,1,165
2023-07-09,1,159
2023-07-10,0,157
2023-07-11,0,172
2023-07-12,1,178
2023-07-13,0,160
2023-07-14,0,173
2023-07-15,1,156
2023-07-16,1,158
2023-07-17,1,163
2023-07-18,3,159
2023-07-19,1,175
2023-07-20,2,168
2023-07-21,1,152
2023-07-22,1,141
2023-07-23,0,147
2023-07-24,0,144
2023-07-25,0,165
2023-07-26,0,146
2023-07-27,1,159
2023-07-28,1,164
2023-07-29,1,148
2023-07-30,1,156
2023-07-31,2,160
2023-08-01,2,159
2023-08-02,1,161
2023-08-03,0,148
2023-08-04,2,150
2023-08-05,0,154
2023-08-06,1,141
2023-08-07,1,154
2023-08-08,0,158
2023-08-09,1,151
2023-08-10,2,159
2023-08-11,1,144
2023-08-12,2,160
2023-08-13,3,152
2023-08-14,2,154
2023-08-15,2,154
2023-08-16,1,158
2023-08-17,0,165
2023-08-18,3,158
2023-08-19,0,161
2023-08-20,4,155
2023-08-21,0,165
2023-08-22,1,171
2023-08-23,0,144
2023-08-24,2,162
2023-08-25,4,156
2023-08-26,3,141
2023-08-27,2,158
2023-08-28,4,168
2023-08-29,0,149
2023-08-30,0,161
2023-08-31,0,150
2023-09-01,1,164
2023-09-02,1,149
2023-09-03,2,131
2023-09-04,0,135
2023-09-05,1,139
2023-09-06,2,145
2023-09-07,3,146
2023-09-08,1,152
2023-09-09,1,145
2023-09-10,3,135
2023-09-11,1,154
2023-09-12,0,170
2023-09-13,1,161
2023-09-14,0,149
2023-09-15,0,177
2023-09-16,2,159
2023-09-17,4,155
2023-09-18,1,165
2023-09-19,1,172
2023-09-20,1,157
2023-09-21,1,159
2023-09-22,0,148
2023-09-23,2,155
2023-09-24,1,151
2023-09-25,1,157
2023-09-26,2,147
2023-09-27,1,163
2023-09-28,1,152
2023-09-29,0,156
2023-09-30,2,155
2023-10-01,3,143
2023-10-02,2,150
2023-10-03,0,159
2023-10-04,0,152
2023-10-05,0,165
2023-10-06,0,147
2023-10-07,1,160
2023-10-08,3,159
2023-10-09,1,146
2023-10-10,3,152
2023-10-11,0,150
2023-10-12,1,146
2023-10-13,3,152
2023-10-14,0,135
2023-10-15,0,147
2023-10-16,1,150
2023-10-17,2,167
2023-10-18,2,157
2023-10-19,0,159
2023-10-20,0,173
2023-10-21,3,155
2023-10-22,1,149
2023-10-23,2,174
2023-10-24,2,148
2023-10-25,1,156
2023-10-26,0,148
2023-10-27,1,141
2023-10-28,1,132
2023-10-29,4,148
2023-10-30,0,150
2023-10-31,0,150
2023-11-01,1,151
2023-11-02,0,149
2023-11-03,0,142
2023-11-04,0,150
2023-11-05,2,140
2023-11-06,2,153
2023-11-07,1,156
2023-11-08,2,141
2023-11-09,0,146
2023-11-10,0,139
2023-11-11,0,148
2023-11-12,0,143
2023-11-13,1,137
2023-11-14,0,144
2023-11-15,0,153
2023-11-16,2,142
2023-11-17,3,122
2023-11-18,1,129
2023-11-19,0,145
2023-11-20,0,156
2023-11-21,1,138
2023-11-22,2,135
2023-11-23,2,144
2023-11-24,0,141
2023-11-25,1,149
2023-11-26,1,141
2023-11-27,1,147
2023-11-28,1,149
2023-11-29,1,148
2023-11-30,2,149
2023-12-01,2,145
2023-12-02,0,135
2023-12-03,1,131
2023-12-04,2,144
2023-12-05,3,89
2023-12-06,2,84
2023-12-07,1,76
2023-12-08,1,99
2023-12-09,0,84
2023-12-10,0,71
2023-12-11,1,86
2023-12-12,1,78
2023-12-13,0,80
2023-12-14,1,73
2023-12-15,1,84
2023-12-16,0,83
2023-12-17,0,75
2023-12-18,1,89
2023-12-19,0,77
2023-12-20,1,77
2023-12-21,3,86
2023-12-22,0,82
2023-12-23,0,74
2023-12-24,0,66
2023-12-25,0,83
2023-12-26,2,72
2023-12-27,0,75
2023-12-28,2,78
2023-12-29,1,75
2023-12-30,0,88
2023-12-31,1,77
2024-01-01,1,77
2024-01-02,1,79
2024-01-03,0,81
2024-01-04,0,75
2024-01-05,0,80
2024-01-06,0,91
2024-01-07,0,75
2024-01-08,0,87
2024-01-09,0,90
2024-01-10,0,84
2024-01-11,0,77
2024-01-12,0,76
2024-01-13,0,74
2024-01-14,1,88
2024-01-15,0,78
2024-01-16,0,74
2024-01-17,1,97
2024-01-18,1,82
2024-01-19,1,85
2024-01-20,1,79
2024-01-21,0,74
2024-01-22,3,81
2024-01-23,2,107
2024-01-24,0,112
2024-01-25,0,114
2024-01-26,0,113
2024-01-27,1,111
2024-01-28,2,103
2024-01-29,1,113
2024-01-30,1,108
2024-01-31,0,104
2024-02-01,0,110
2024-02-02,1,115
2024-02-03,0,96
2024-02-04,0,114
2024-02-05,2,125
2024-02-06,1,116
2024-02-07,2,116
2024-02-08,0,124
2024-02-09,1,101
2024-02-10,0,115
2024-02-11,1,110
2024-02-12,5,108
2024-02-13,1,99
2024-02-14,2,124
2024-02-15,2,129
2024-02-16,4,121
2024-02-17,1,127
2024-02-18,1,120
2024-02-19,2,120
2024-02-20,0,122
2024-02-21,1,126
2024-02-22,1,123
2024-02-23,1,127
2024-02-24,2,127
2024-02-25,2,115
2024-02-26,1,117
2024-02-27,0,120
2024-02-28,2,129
2024-02-29,0,126
2024-03-01,0,104
2024-03-02,0,128
2024-03-03,0,109
2024-03-04,3,118
2024-03-05,1,118
2024-03-06,1,120
2024-03-07,1,110
2024-03-08,3,118
2024-03-09,1,119
2024-03-10,1,112
2024-03-11,2,120
2024-03-12,0,121
2024-03-13,1,123
2024-03-14,4,118
2024-03-15,0,110
2024-03-16,1,121
2024-03-17,1,102
2024-03-18,2,124
2024-03-19,1,113
2024-03-20,0,114
2024-03-21,1,111
2024-03-22,0,110
2024-03-23,4,111
2024-03-24,1,121
2024-03-25,2,114
2024-03-26,1,119
2024-03-27,0,109
2024-03-28,3,120
2024-03-29,1,119
2024-03-30,2,126
2024-03-31,3,119
2024-04-01,0,129
2024-04-02,0,129
2024-04-03,1,109
2024-04-04,1,95
2024-04-05,0,121
2024-04-06,2,114
2024-04-07,1,117
2024-04-08,0,121
2024-04-09,0,119
2024-04-10,1,122
2024-04-11,0,124
2024-04-12,2,126
2024-04-13,3,135
2024-04-14,3,112
2024-04-15,4,124
2024-04-16,2,123
2024-04-17,2,124
2024-04-18,1,114
2024-04-19,0,124
2024-04-20,0,129
2024-04-21,1,120
2024-04-22,2,125
2024-04-23,0,127
2024-04-24,3,124
2024-04-25,1,121
2024-04-26,0,118
2024-04-27,1,119
2024-04-28,0,124
2024-04-29,0,111
2024-04-30,1,118
2024-05-01,1,121
2024-05-02,1,112
2024-05-03,1,119
2024-05-04,1,113
2024-05-05,2,125
2024-05-06,3,110
2024-05-07,3,112
2024-05-08,0,121
2024-05-09,3,112
2024-05-10,1,106
2024-05-11,1,111
2024-05-12,0,103
2024-05-13,0,119
2024-05-14,1,112
2024-05-15,4,117
2024-05-16,2,13
